This demonstration page uses our WeatherBlox Daily Observations layout. Learn more.

Left ArrowRight Arrow

Hourly Observations for February 12, 2020

Temp ( °F °C ) Dew Point ( °F °C ) Humidity (%) Winds ( mph kmh ) Pressure ( in mb ) Visibility ( mi km ) Precip ( " mm )
12:53 am 00:53 Clear 31 -0.6 29 -1.7 92 92 N N/A 30.23 1024 7 11 N/A
1:53 am 01:53 Clear with Mist and Fog 30 -1.1 29 -1.7 96 96 N N/A 30.22 1024 6 10 N/A
2:53 am 02:53 Clear with Mist and Fog 27 -2.8 26 -3.3 96 96 N N/A 30.22 1024 5 8 N/A
3:53 am 03:53 Clear with Mist and Fog 29 -1.7 27 -2.8 92 92 N N/A 30.21 1023 4 6 N/A
4:53 am 04:53 Clear with Mist and Fog 27 -2.8 25 -3.9 92 92 N N/A 30.21 1023 4 6 N/A
5:53 am 05:53 Clear with Mist and Fog 27 -2.8 26 -3.3 96 96 N N/A 30.19 1023 5 8 N/A
6:53 am 06:53 Clear with Mist and Fog 27 -2.8 26 -3.3 96 96 N N/A 30.21 1023 5 8 N/A
7:53 am 07:53 Sunny with Mist and Fog 27 -2.8 25 -3.9 92 92 N N/A 30.19 1022 3 5 N/A
8:53 am 08:53 Sunny with Mist and Fog 31 -0.6 28 -2.2 89 89 N N/A 30.19 1022 5 8 N/A
9:53 am 09:53 Sunny 34 1.1 29 -1.7 82 82 E 3 6 30.18 1022 8 13 N/A
10:53 am 10:53 Partly Cloudy 36 2.2 27 -2.8 70 70 ESE 6 9 30.14 1021 10 16 N/A
11:53 am 11:53 Mostly Cloudy 37 2.8 26 -3.3 65 65 SE 6 9 30.14 1021 10 16 N/A
12:53 pm 12:53 Cloudy 38 3.3 28 -2.2 68 68 E 5 7 30.13 1020 10 16 N/A
1:53 pm 13:53 Cloudy with Light Rain 38 3.3 31 -0.6 76 76 VRB 5 7 30.06 1018 9 14 0.00 0.00
2:53 pm 14:53 Cloudy with Light Rain 37 2.8 33 0.6 86 86 E 8 13 30.01 1016 6 10 0.02 0.51
3:53 pm 15:53 Cloudy with Rain 35 1.7 33 0.6 93 93 E 8 13 29.98 1015 3 5 0.07 1.78
4:41 pm 16:41 Cloudy with Rain 35 1.7 33 0.6 93 93 E 7 11 29.97 1015 3 4 0.07 1.78
4:53 pm 16:53 Cloudy with Light Rain 35 1.7 33 0.6 93 93 E 7 11 29.96 1015 3 4 0.09 2.29
4:57 pm 16:57 Cloudy with Rain 35 1.7 33 0.6 93 93 E 6 9 29.97 1015 3 5 0.00 0.00
5:04 pm 17:04 Cloudy with Light Rain 35 1.7 33 0.6 93 93 E 7 11 29.96 1015 3 5 0.01 0.25
5:24 pm 17:24 Cloudy with Light Rain 35 1.7 33 0.6 93 93 ENE 8 13 29.94 1014 3 4 0.03 0.76
5:39 pm 17:39 Cloudy with Light Rain 35 1.7 33 0.6 93 93 NE 8 13 29.93 1014 3 4 0.05 1.27
5:53 pm 17:53 Cloudy with Rain 35 1.7 33 0.6 93 93 NE 7 11 29.92 1013 3 5 0.07 1.78
6:53 pm 18:53 Cloudy with Heavy Rain 35 1.7 33 0.6 93 93 NE 10 17 29.87 1011 3 5 0.22 5.59
7:15 pm 19:15 Cloudy with Rain 35 1.7 33 0.6 93 93 E 9 15 29.86 1011 4 6 0.07 1.78
7:31 pm 19:31 Cloudy with Rain 35 1.7 33 0.6 93 93 ENE 7 11 29.86 1011 4 6 0.10 2.54
7:53 pm 19:53 Cloudy with Rain 35 1.7 33 0.6 93 93 NE 7 11 29.84 1011 4 6 0.15 3.81
8:13 pm 20:13 Cloudy with Rain 35 1.7 33 0.6 93 93 ENE 8 13 29.84 1010 4 6 0.04 1.02
8:21 pm 20:21 Cloudy with Light Rain 35 1.7 33 0.6 93 93 ENE 10 17 29.79 1009 5 8 0.05 1.27
8:42 pm 20:42 Cloudy with Light Rain 34 1.1 33 0.6 97 97 E 14 22 29.74 1007 7 11 0.06 1.52
8:53 pm 20:53 Cloudy with Light Rain 35 1.7 33 0.6 93 93 ENE 7 11 29.72 1007 6 10 0.06 1.52
9:00 pm 21:00 Cloudy with Light Rain 35 1.7 33 0.6 93 93 N 6 9 29.78 1008 8 13 0.01 0.25
9:29 pm 21:29 Cloudy with Light Rain 35 1.7 33 0.6 93 93 E 9 15 29.76 1008 9 14 0.01 0.25
9:40 pm 21:40 Cloudy with Light Rain 35 1.7 33 0.6 93 93 E 7 11 29.78 1008 3 5 0.02 0.51
9:53 pm 21:53 Cloudy with Light Rain 35 1.7 33 0.6 93 93 NNE 7 11 29.73 1007 3 5 0.02 0.51
10:00 pm 22:00 Cloudy with Light Rain 35 1.7 33 0.6 93 93 ENE 7 11 29.73 1007 3 5 0.00 0.00
10:10 pm 22:10 Cloudy with Mist and Fog 35 1.7 33 0.6 93 93 NNE 6 9 29.76 1008 3 5 0.00 0.00
10:53 pm 22:53 Cloudy with Mist and Fog 35 1.7 34 1.1 96 96 ENE 5 7 29.75 1007 5 8 0.01 0.25
11:53 pm 23:53 Cloudy 36 2.2 34 1.1 93 93 NE 6 9 29.71 1006 10 16 N/A

Powered by AerisWeather